| time (UTC) | temp F | wind direction | speed MPH | gust MPH | rain 1hr in | rain 24hr in | rain mn in | humidity % | barometer mb |
| 20260502170104 | 47 | 323 | 5.0 | 12.0 | 0.00 | 0.01 | 0.00 | 74 | 1014.5 |
| 20260502163604 | 45 | 351 | 10.0 | 15.0 | 0.00 | 0.02 | 0.00 | 71 | 1014.8 |
| 20260502163103 | 46 | 307 | 3.0 | 8.0 | 0.00 | 0.02 | 0.00 | 72 | 1014.8 |
| 20260502162603 | 44 | 294 | 6.0 | 10.0 | 0.00 | 0.03 | 0.00 | 72 | 1014.8 |
| 20260502162103 | 44 | 25 | 7.0 | 14.0 | 0.00 | 0.03 | 0.00 | 68 | 1014.8 |
| 20260502161603 | 46 | 302 | 7.0 | 15.0 | 0.00 | 0.03 | 0.00 | 70 | 1014.8 |
| 20260502161103 | 46 | 14 | 4.0 | 12.0 | 0.00 | 0.03 | 0.00 | 70 | 1014.8 |
| 20260502160604 | 46 | 344 | 5.0 | 12.0 | 0.00 | 0.04 | 0.00 | 69 | 1014.8 |
| 20260502160106 | 45 | 313 | 6.0 | 12.0 | 0.00 | 0.04 | 0.00 | 72 | 1014.8 |
| 20260502152104 | 44 | 343 | 5.0 | 12.0 | 0.00 | 0.05 | 0.00 | 67 | 1014.7 |
| 20260502151104 | 44 | 338 | 6.0 | 12.0 | 0.00 | 0.05 | 0.00 | 67 | 1014.7 |
| 20260502150605 | 43 | 347 | 6.0 | 13.0 | 0.00 | 0.05 | 0.00 | 63 | 1014.7 |
| 20260502130605 | 43 | 305 | 5.0 | 12.0 | 0.00 | 0.05 | 0.00 | 72 | 1015.3 |
| 20260502130104 | 41 | 316 | 6.0 | 12.0 | 0.00 | 0.05 | 0.00 | 71 | 1015.2 |
| 20260502123604 | 40 | 320 | 5.0 | 10.0 | 0.00 | 0.05 | 0.00 | 77 | 1015.2 |
| 20260502123103 | 40 | 350 | 5.0 | 13.0 | 0.00 | 0.05 | 0.00 | 78 | 1015.2 |
| 20260502122603 | 40 | 331 | 7.0 | 12.0 | 0.00 | 0.05 | 0.00 | 77 | 1015.1 |
| 20260502121604 | 39 | 341 | 4.0 | 12.0 | 0.00 | 0.05 | 0.00 | 79 | 1015.1 |
| 20260502120603 | 39 | 351 | 6.0 | 15.0 | 0.00 | 0.05 | 0.00 | 78 | 1015.1 |
| 20260502120104 | 39 | 335 | 5.0 | 13.0 | 0.00 | 0.05 | 0.00 | 79 | 1015.1 |
| 20260502115603 | 39 | 322 | 5.0 | 12.0 | 0.00 | 0.05 | 0.00 | 79 | 1015.1 |
| 20260502115104 | 39 | 334 | 6.0 | 14.0 | 0.00 | 0.05 | 0.00 | 81 | 1015.2 |
| 20260502114603 | 39 | 322 | 3.0 | 9.0 | 0.00 | 0.05 | 0.00 | 82 | 1015.2 |
| 20260502113603 | 37 | 343 | 7.0 | 12.0 | 0.00 | 0.05 | 0.00 | 83 | 1015.1 |
| 20260502113104 | 37 | 319 | 5.0 | 13.0 | 0.00 | 0.05 | 0.00 | 85 | 1015.1 |
| 20260502112603 | 36 | 329 | 3.0 | 8.0 | 0.00 | 0.05 | 0.00 | 86 | 1015.2 |
| 20260502112104 | 35 | 301 | 3.0 | 8.0 | 0.00 | 0.05 | 0.00 | 86 | 1015.0 |
| 20260502111603 | 35 | 344 | 5.0 | 9.0 | 0.00 | 0.05 | 0.00 | 86 | 1015.0 |
| 20260502111104 | 34 | 319 | 5.0 | 8.0 | 0.00 | 0.05 | 0.00 | 87 | 1015.0 |
| 20260502110604 | 34 | 344 | 3.0 | 7.0 | 0.00 | 0.05 | 0.00 | 87 | 1015.1 |
| 20260502110104 | 34 | 299 | 4.0 | 7.0 | 0.00 | 0.05 | 0.00 | 87 | 1015.1 |
| 20260502105604 | 34 | 325 | 3.0 | 10.0 | 0.00 | 0.05 | 0.00 | 88 | 1014.9 |
| 20260502104604 | 33 | 322 | 3.0 | 9.0 | 0.00 | 0.05 | 0.00 | 88 | 1015.0 |
| 20260502104103 | 33 | 311 | 4.0 | 7.0 | 0.00 | 0.05 | 0.00 | 88 | 1014.9 |
| 20260502103603 | 33 | 309 | 1.0 | 3.0 | 0.00 | 0.05 | 0.00 | 88 | 1014.8 |
| 20260502102603 | 33 | 302 | 4.0 | 7.0 | 0.00 | 0.05 | 0.00 | 88 | 1014.8 |
| 20260502102104 | 33 | 342 | 3.0 | 9.0 | 0.00 | 0.05 | 0.00 | 89 | 1014.7 |
| 20260502101603 | 33 | 321 | 4.0 | 9.0 | 0.00 | 0.05 | 0.00 | 89 | 1014.7 |
| 20260502101103 | 33 | 310 | 3.0 | 9.0 | 0.00 | 0.05 | 0.00 | 89 | 1014.8 |
| 20260502100104 | 33 | 318 | 3.0 | 8.0 | 0.00 | 0.05 | 0.00 | 89 | 1014.7 |
| 20260502091104 | 33 | 310 | 3.0 | 6.0 | 0.00 | 0.05 | 0.00 | 89 | 1014.4 |
| 20260502090604 | 33 | 303 | 2.0 | 5.0 | 0.00 | 0.05 | 0.00 | 88 | 1014.3 |
| 20260502090104 | 33 | 310 | 2.0 | 6.0 | 0.00 | 0.05 | 0.00 | 88 | 1014.2 |
| 20260502080104 | 35 | 336 | 4.0 | 8.0 | 0.00 | 0.05 | 0.00 | 86 | 1013.8 |
| 20260502070604 | 36 | 349 | 5.0 | 9.0 | 0.00 | 0.05 | 0.00 | 86 | 1014.0 |
| 20260502070104 | 36 | 328 | 3.0 | 8.0 | 0.00 | 0.05 | 0.00 | 86 | 1014.0 |
| 20260502065604 | 36 | 336 | 6.0 | 9.0 | 0.00 | 0.05 | 0.00 | 86 | 1014.0 |
| 20260502065104 | 36 | 320 | 4.0 | 12.0 | 0.00 | 0.05 | 0.00 | 86 | 1014.0 |
| 20260502064604 | 36 | 329 | 3.0 | 8.0 | 0.00 | 0.05 | 0.00 | 86 | 1014.0 |
| 20260502064104 | 35 | 316 | 3.0 | 6.0 | 0.00 | 0.05 | 0.00 | 86 | 1014.1 |
| 20260502063603 | 35 | 314 | 3.0 | 8.0 | 0.00 | 0.05 | 0.00 | 85 | 1014.1 |
| 20260502062605 | 36 | 309 | 2.0 | 5.0 | 0.00 | 0.05 | 0.00 | 85 | 1014.0 |
| 20260502062104 | 36 | 324 | 3.0 | 5.0 | 0.00 | 0.05 | 0.00 | 85 | 1014.0 |
| 20260502061605 | 36 | 328 | 2.0 | 3.0 | 0.00 | 0.05 | 0.00 | 85 | 1014.0 |
| 20260502061104 | 37 | 321 | 3.0 | 3.0 | 0.00 | 0.05 | 0.00 | 85 | 1014.0 |
| 20260502060604 | 37 | 330 | 3.0 | 6.0 | 0.00 | 0.05 | 0.00 | 85 | 1014.1 |
| 20260502060104 | 37 | 327 | 2.0 | 3.0 | 0.00 | 0.05 | 0.00 | 85 | 1014.1 |
| 20260502055604 | 37 | 330 | 1.0 | 3.0 | 0.00 | 0.05 | 0.00 | 85 | 1014.1 |
| 20260502054604 | 38 | 340 | 2.0 | 6.0 | 0.00 | 0.05 | 0.00 | 85 | 1014.2 |
| 20260502054104 | 38 | 351 | 2.0 | 5.0 | 0.00 | 0.05 | 0.00 | 84 | 1014.2 |
| 20260502053604 | 38 | 7 | 2.0 | 7.0 | 0.00 | 0.05 | 0.00 | 84 | 1014.2 |
| 20260502053104 | 38 | 340 | 3.0 | 6.0 | 0.00 | 0.05 | 0.00 | 84 | 1014.3 |
| 20260502052604 | 38 | 346 | 2.0 | 3.0 | 0.00 | 0.05 | 0.00 | 83 | 1014.2 |
| 20260502052104 | 38 | 341 | 2.0 | 3.0 | 0.00 | 0.05 | 0.00 | 83 | 1014.1 |
| 20260502051604 | 38 | 346 | 2.0 | 3.0 | 0.00 | 0.05 | 0.00 | 82 | 1014.1 |
| 20260502051105 | 38 | 355 | 1.0 | 3.0 | 0.00 | 0.05 | 0.00 | 82 | 1013.9 |
| 20260502050604 | 39 | 351 | 1.0 | 6.0 | 0.00 | 0.05 | 0.00 | 82 | 1013.9 |
| 20260502050104 | 39 | 27 | 1.0 | 8.0 | 0.00 | 0.05 | 0.00 | 81 | 1013.8 |
| 20260502045604 | 39 | 345 | 2.0 | 7.0 | 0.00 | 0.05 | 0.00 | 81 | 1013.8 |
| 20260502045104 | 39 | 25 | 5.0 | 12.0 | 0.00 | 0.05 | 0.00 | 81 | 1013.7 |
| 20260502044604 | 39 | 6 | 3.0 | 9.0 | 0.00 | 0.05 | 0.00 | 81 | 1013.6 |
| 20260502044105 | 39 | 0 | 3.0 | 8.0 | 0.00 | 0.05 | 0.00 | 80 | 1013.7 |
| 20260502043604 | 39 | 353 | 3.0 | 8.0 | 0.00 | 0.05 | 0.00 | 80 | 1013.6 |
| 20260502043104 | 39 | 0 | 6.0 | 12.0 | 0.00 | 0.05 | 0.00 | 79 | 1013.5 |
| 20260502042604 | 39 | 354 | 6.0 | 13.0 | 0.00 | 0.05 | 0.00 | 79 | 1013.5 |
| 20260502042103 | 40 | 355 | 4.0 | 12.0 | 0.00 | 0.05 | 0.00 | 78 | 1013.4 |
| 20260502041604 | 40 | 344 | 6.0 | 12.0 | 0.00 | 0.05 | 0.00 | 77 | 1013.4 |
| 20260502041104 | 40 | 314 | 6.0 | 12.0 | 0.00 | 0.05 | 0.00 | 76 | 1013.4 |
| 20260502040605 | 41 | 332 | 5.0 | 10.0 | 0.00 | 0.05 | 0.00 | 75 | 1013.3 |
| 20260502040104 | 41 | 327 | 5.0 | 13.0 | 0.00 | 0.05 | 0.00 | 74 | 1013.4 |
| 20260502035603 | 41 | 342 | 7.0 | 13.0 | 0.00 | 0.05 | 0.05 | 74 | 1013.4 |
| 20260502035104 | 41 | 322 | 5.0 | 14.0 | 0.00 | 0.05 | 0.05 | 73 | 1013.4 |
| 20260502034604 | 42 | 340 | 9.0 | 15.0 | 0.00 | 0.05 | 0.05 | 73 | 1013.3 |
| 20260502034103 | 42 | 353 | 6.0 | 10.0 | 0.00 | 0.05 | 0.05 | 73 | 1013.3 |
| 20260502033604 | 42 | 327 | 6.0 | 13.0 | 0.00 | 0.05 | 0.05 | 74 | 1013.3 |
| 20260502033104 | 42 | 334 | 6.0 | 14.0 | 0.00 | 0.05 | 0.05 | 76 | 1013.2 |
| 20260502032604 | 42 | 324 | 4.0 | 9.0 | 0.00 | 0.05 | 0.05 | 79 | 1013.2 |
| 20260502031604 | 42 | 309 | 5.0 | 9.0 | 0.00 | 0.05 | 0.05 | 83 | 1013.2 |
| 20260502031104 | 42 | 302 | 2.0 | 6.0 | 0.00 | 0.05 | 0.05 | 83 | 1013.2 |
| 20260502030604 | 42 | 296 | 3.0 | 8.0 | 0.00 | 0.05 | 0.05 | 83 | 1013.2 |
| 20260502030104 | 42 | 267 | 2.0 | 6.0 | 0.00 | 0.05 | 0.05 | 83 | 1013.2 |
| 20260502025604 | 42 | 290 | 3.0 | 6.0 | 0.00 | 0.05 | 0.05 | 84 | 1013.2 |
| 20260502024604 | 42 | 283 | 2.0 | 6.0 | 0.00 | 0.05 | 0.05 | 84 | 1013.2 |
| 20260502023604 | 42 | 299 | 3.0 | 6.0 | 0.00 | 0.05 | 0.05 | 84 | 1013.2 |
| 20260502023103 | 42 | 284 | 2.0 | 3.0 | 0.00 | 0.05 | 0.05 | 84 | 1013.2 |
| 20260502022604 | 42 | 306 | 2.0 | 7.0 | 0.00 | 0.05 | 0.05 | 84 | 1013.2 |
| 20260502022104 | 42 | 296 | 3.0 | 9.0 | 0.00 | 0.05 | 0.05 | 83 | 1013.1 |
| 20260502021604 | 42 | 284 | 2.0 | 7.0 | 0.00 | 0.05 | 0.05 | 83 | 1013.1 |
| 20260502021105 | 42 | 284 | 2.0 | 9.0 | 0.00 | 0.05 | 0.05 | 83 | 1013.1 |
| 20260502020603 | 42 | 272 | 2.0 | 5.0 | 0.00 | 0.05 | 0.05 | 83 | 1013.1 |
| 20260502020104 | 42 | 285 | 3.0 | 9.0 | 0.00 | 0.05 | 0.05 | 83 | 1013.1 |
| 20260502015603 | 42 | 277 | 3.0 | 6.0 | 0.00 | 0.05 | 0.05 | 83 | 1013.1 |
| 20260502015104 | 43 | 267 | 3.0 | 5.0 | 0.00 | 0.05 | 0.05 | 83 | 1013.1 |
| 20260502014603 | 43 | 278 | 2.0 | 3.0 | 0.00 | 0.05 | 0.05 | 83 | 1013.1 |
| 20260502014104 | 43 | 275 | 3.0 | 8.0 | 0.00 | 0.05 | 0.05 | 83 | 1013.1 |
| 20260502013604 | 43 | 274 | 4.0 | 8.0 | 0.00 | 0.05 | 0.05 | 83 | 1013.1 |
| 20260502013103 | 43 | 279 | 3.0 | 7.0 | 0.00 | 0.05 | 0.05 | 83 | 1013.1 |
| 20260502012104 | 43 | 290 | 5.0 | 9.0 | 0.00 | 0.05 | 0.05 | 82 | 1012.8 |
| 20260502011604 | 43 | 276 | 4.0 | 10.0 | 0.00 | 0.05 | 0.05 | 83 | 1012.8 |
| 20260502011104 | 44 | 286 | 5.0 | 12.0 | 0.00 | 0.05 | 0.05 | 83 | 1012.7 |
| 20260502010604 | 44 | 271 | 3.0 | 6.0 | 0.00 | 0.05 | 0.05 | 82 | 1012.6 |
| 20260502010104 | 44 | 274 | 3.0 | 9.0 | 0.00 | 0.05 | 0.05 | 82 | 1012.6 |
| 20260502005605 | 44 | 287 | 4.0 | 8.0 | 0.00 | 0.05 | 0.05 | 82 | 1012.5 |
| 20260502005104 | 44 | 285 | 3.0 | 7.0 | 0.00 | 0.05 | 0.05 | 81 | 1012.4 |
| 20260502004604 | 44 | 275 | 2.0 | 5.0 | 0.00 | 0.05 | 0.05 | 81 | 1012.4 |
| 20260502004103 | 44 | 272 | 2.0 | 6.0 | 0.00 | 0.05 | 0.05 | 80 | 1012.3 |
| 20260502003603 | 44 | 299 | 2.0 | 5.0 | 0.00 | 0.05 | 0.05 | 79 | 1012.3 |
| 20260502003105 | 45 | 285 | 3.0 | 6.0 | 0.00 | 0.05 | 0.05 | 78 | 1012.2 |
| 20260502002604 | 45 | 282 | 1.0 | 3.0 | 0.00 | 0.05 | 0.05 | 77 | 1012.1 |
| 20260502002105 | 45 | 295 | 2.0 | 6.0 | 0.00 | 0.05 | 0.05 | 76 | 1012.1 |
| 20260502001604 | 45 | 266 | 1.0 | 3.0 | 0.00 | 0.05 | 0.05 | 76 | 1011.9 |
| 20260502001103 | 45 | 269 | 1.0 | 3.0 | 0.00 | 0.05 | 0.05 | 75 | 1011.9 |
| 20260502000604 | 45 | 293 | 1.0 | 2.0 | 0.00 | 0.05 | 0.05 | 75 | 1011.9 |
| 20260502000104 | 46 | 296 | 2.0 | 3.0 | 0.00 | 0.05 | 0.05 | 74 | 1011.9 |
| 20260501235604 | 46 | 289 | 1.0 | 3.0 | 0.00 | 0.05 | 0.05 | 74 | 1011.8 |
| 20260501235104 | 46 | 288 | 2.0 | 3.0 | 0.00 | 0.05 | 0.05 | 74 | 1011.7 |
| 20260501234603 | 46 | 296 | 2.0 | 3.0 | 0.00 | 0.05 | 0.05 | 74 | 1011.7 |
| 20260501234104 | 46 | 263 | 2.0 | 5.0 | 0.00 | 0.05 | 0.05 | 74 | 1011.7 |
| 20260501233605 | 46 | 293 | 2.0 | 5.0 | 0.00 | 0.05 | 0.05 | 74 | 1011.6 |
| 20260501233104 | 46 | 323 | 3.0 | 6.0 | 0.00 | 0.05 | 0.05 | 74 | 1011.6 |
| 20260501231603 | 47 | 299 | 3.0 | 6.0 | 0.00 | 0.05 | 0.05 | 72 | 1011.5 |
| 20260501231103 | 47 | 317 | 3.0 | 8.0 | 0.00 | 0.05 | 0.05 | 73 | 1011.5 |
| 20260501225603 | 47 | 292 | 2.0 | 3.0 | 0.00 | 0.05 | 0.05 | 73 | 1011.5 |
| 20260501225103 | 47 | 245 | 1.0 | 3.0 | 0.00 | 0.05 | 0.05 | 73 | 1011.5 |
| 20260501224603 | 47 | 284 | 0.0 | 3.0 | 0.00 | 0.05 | 0.05 | 74 | 1011.4 |
| 20260501224102 | 47 | 291 | 1.0 | 3.0 | 0.00 | 0.05 | 0.05 | 73 | 1011.4 |
| 20260501223603 | 47 | 251 | 1.0 | 3.0 | 0.00 | 0.05 | 0.05 | 73 | 1011.4 |
| 20260501223102 | 47 | 289 | 2.0 | 3.0 | 0.00 | 0.05 | 0.05 | 73 | 1011.5 |
| 20260501222602 | 47 | 293 | 2.0 | 3.0 | 0.00 | 0.05 | 0.05 | 73 | 1011.4 |
| 20260501222104 | 47 | 299 | 3.0 | 5.0 | 0.00 | 0.05 | 0.05 | 74 | 1011.4 |
| 20260501221603 | 47 | 320 | 0.0 | 3.0 | 0.00 | 0.05 | 0.05 | 75 | 1011.4 |
| 20260501221102 | 47 | 294 | 2.0 | 3.0 | 0.00 | 0.05 | 0.05 | 75 | 1011.4 |
| 20260501220603 | 47 | 281 | 2.0 | 3.0 | 0.00 | 0.05 | 0.05 | 76 | 1011.4 |
| 20260501214602 | 47 | 245 | 0.0 | 5.0 | 0.00 | 0.05 | 0.05 | 77 | 1011.4 |
| 20260501214104 | 47 | 292 | 3.0 | 5.0 | 0.00 | 0.05 | 0.05 | 78 | 1011.4 |
| 20260501213603 | 47 | 198 | 2.0 | 3.0 | 0.00 | 0.05 | 0.05 | 78 | 1011.4 |
| 20260501213103 | 47 | 234 | 2.0 | 3.0 | 0.00 | 0.05 | 0.05 | 79 | 1011.4 |
| 20260501212603 | 46 | 284 | 2.0 | 3.0 | 0.00 | 0.05 | 0.05 | 79 | 1011.4 |
| 20260501212102 | 46 | 239 | 2.0 | 5.0 | 0.00 | 0.05 | 0.05 | 79 | 1011.3 |
| 20260501211102 | 46 | 235 | 1.0 | 5.0 | 0.00 | 0.05 | 0.05 | 79 | 1011.3 |
| 20260501205603 | 47 | 229 | 2.0 | 3.0 | 0.00 | 0.05 | 0.05 | 80 | 1011.3 |
| 20260501205103 | 47 | 194 | 2.0 | 5.0 | 0.00 | 0.05 | 0.05 | 81 | 1011.3 |
| 20260501204603 | 46 | 217 | 2.0 | 3.0 | 0.00 | 0.05 | 0.05 | 79 | 1011.3 |
| 20260501204103 | 47 | 245 | 2.0 | 7.0 | 0.00 | 0.05 | 0.05 | 81 | 1011.3 |
| 20260501203603 | 47 | 248 | 2.0 | 6.0 | 0.00 | 0.05 | 0.05 | 82 | 1011.2 |
| 20260501202602 | 47 | 221 | 3.0 | 5.0 | 0.00 | 0.05 | 0.05 | 83 | 1011.3 |
| 20260501202103 | 46 | 196 | 2.0 | 7.0 | 0.00 | 0.05 | 0.05 | 82 | 1011.2 |
| 20260501201603 | 46 | 240 | 2.0 | 7.0 | 0.00 | 0.05 | 0.05 | 83 | 1011.2 |
| 20260501200605 | 46 | 204 | 2.0 | 5.0 | 0.00 | 0.05 | 0.05 | 84 | 1011.3 |
| 20260501200103 | 46 | 200 | 2.0 | 5.0 | 0.00 | 0.05 | 0.05 | 85 | 1011.4 |
| 20260501195603 | 46 | 203 | 1.0 | 7.0 | 0.00 | 0.05 | 0.05 | 85 | 1011.4 |
| 20260501195103 | 46 | 172 | 4.0 | 7.0 | 0.00 | 0.05 | 0.05 | 85 | 1011.5 |
| 20260501194104 | 45 | 260 | 2.0 | 3.0 | 0.00 | 0.05 | 0.05 | 85 | 1011.5 |
| 20260501193603 | 46 | 242 | 3.0 | 5.0 | 0.00 | 0.05 | 0.05 | 86 | 1011.5 |
| 20260501193102 | 45 | 233 | 1.0 | 8.0 | 0.00 | 0.05 | 0.05 | 86 | 1011.6 |
| 20260501192603 | 45 | 174 | 1.0 | 7.0 | 0.00 | 0.05 | 0.05 | 86 | 1011.5 |
| 20260501192102 | 45 | 215 | 3.0 | 7.0 | 0.00 | 0.05 | 0.05 | 86 | 1011.6 |
| 20260501191603 | 45 | 199 | 5.0 | 8.0 | 0.00 | 0.05 | 0.05 | 87 | 1011.6 |
| 20260501190603 | 45 | 226 | 2.0 | 8.0 | 0.00 | 0.05 | 0.05 | 87 | 1011.7 |
| 20260501185602 | 44 | 195 | 2.0 | 5.0 | 0.00 | 0.05 | 0.05 | 88 | 1011.8 |
| 20260501185103 | 44 | 189 | 2.0 | 5.0 | 0.00 | 0.05 | 0.05 | 87 | 1011.9 |
| 20260501184603 | 43 | 194 | 3.0 | 6.0 | 0.00 | 0.05 | 0.05 | 86 | 1012.0 |
| 20260501184103 | 43 | 245 | 2.0 | 3.0 | 0.01 | 0.05 | 0.05 | 86 | 1012.2 |
| 20260501183604 | 43 | 251 | 2.0 | 3.0 | 0.01 | 0.05 | 0.05 | 86 | 1012.3 |
| 20260501183104 | 43 | 296 | 1.0 | 3.0 | 0.01 | 0.05 | 0.05 | 86 | 1012.4 |
| 20260501182602 | 43 | 248 | 2.0 | 3.0 | 0.01 | 0.05 | 0.05 | 86 | 1012.4 |
| 20260501182103 | 43 | 295 | 1.0 | 3.0 | 0.01 | 0.05 | 0.05 | 87 | 1012.5 |
| 20260501181603 | 43 | 343 | 2.0 | 3.0 | 0.01 | 0.05 | 0.05 | 87 | 1012.4 |
| 20260501181103 | 43 | 313 | 2.0 | 3.0 | 0.01 | 0.05 | 0.05 | 86 | 1012.5 |
| 20260501180602 | 43 | 327 | 1.0 | 3.0 | 0.01 | 0.05 | 0.05 | 87 | 1012.5 |
| 20260501175603 | 43 | 336 | 2.0 | 7.0 | 0.02 | 0.05 | 0.05 | 87 | 1012.5 |
| 20260501175103 | 43 | 326 | 2.0 | 6.0 | 0.02 | 0.05 | 0.05 | 87 | 1012.5 |
| 20260501174603 | 43 | 296 | 2.0 | 3.0 | 0.02 | 0.05 | 0.05 | 87 | 1012.4 |
| 20260501174103 | 43 | 312 | 2.0 | 3.0 | 0.01 | 0.04 | 0.04 | 87 | 1012.5 |
| 20260501173603 | 43 | 315 | 2.0 | 3.0 | 0.01 | 0.04 | 0.04 | 87 | 1012.5 |
| 20260501173103 | 42 | 328 | 3.0 | 7.0 | 0.01 | 0.04 | 0.04 | 86 | 1012.5 |
| 20260501172602 | 42 | 315 | 3.0 | 8.0 | 0.02 | 0.04 | 0.04 | 86 | 1012.5 |
| 20260501172103 | 43 | 338 | 3.0 | 6.0 | 0.02 | 0.04 | 0.04 | 87 | 1012.6 |
| 20260501171602 | 43 | 342 | 3.0 | 7.0 | 0.02 | 0.04 | 0.04 | 87 | 1012.6 |